Zapata, TX

9:47 AM CDT on July 25, 2016 (GMT -0500)
Zapata

Weather History for KAPY - April, 2014

Change the Weather History Date:

Friday, April 25, 2014

  Actual Average (KLRD) Record (KLRD)
Temperature  
Mean Temperature 81 °F 78 °F  
Max Temperature 93 °F 90 °F 107 °F (2011)
Min Temperature 69 °F 67 °F 42 °F (1913)
Degree Days  
Heating Degree Days 0 0  
Month to date heating degree days 12  
Since 1 July heating degree days 925  
Cooling Degree Days 16 13  
Month to date cooling degree days 273  
Year to date cooling degree days 531  
Growing Degree Days 31 (Base 50)    
Moisture  
Dew Point 66 °F    
Average Humidity 67    
Maximum Humidity 97    
Minimum Humidity 31    
Precipitation  
Precipitation 0.00 in 0.06 in 2.65 in (1949)
Month to date precipitation 1.11  
Year to date precipitation 4.07  
Sea Level Pressure  
Sea Level Pressure 29.89 in    
Wind  
Wind Speed 6 mph (ESE)    
Max Wind Speed 15 mph    
Max Gust Speed 37 mph    
Visibility 9 miles    
Events      
T = Trace of Precipitation, MM = Missing Value Source: NWS Daily Summary

Daily Weather History Graph

Daily Weather History Graph

Search for Another Location

Airport or City:

Trip Planner

Search our weather history database for the weather conditions in past years. The results will help you decide how hot, cold, wet, or windy it might be!

Date:

Astronomy

Apr. 25, 2014 Rise Set
Actual Time 7:03 AM CDT 8:06 PM CDT
Civil Twilight 6:39 AM CDT 8:30 PM CDT
Nautical Twilight 6:10 AM CDT 8:59 PM CDT
Astronomical Twilight 5:41 AM CDT 9:29 PM CDT
Moon 4:30 AM CDT 4:49 PM CDT
Length of Visible Light 13h 51m
Length of Day
13h 03m
Waning Crescent, 15% of the Moon is Illuminated
Apr 25
Waning Crescent
Apr 29
New
May 6
First Quarter
May 14
Full
May 21
Last Quarter

Hourly Weather History & Observations

Time (CDT) Temp. Heat Index Dew Point Humidity Pressure Visibility Wind Dir Wind Speed Gust Speed Precip Events Conditions
12:15 AM 75.7 °F - 68.0 °F 77% 29.87 in 10.0 mi East 8.1 mph - N/A   Clear
12:35 AM 75.2 °F - 68.0 °F 78% 29.87 in 10.0 mi East 4.6 mph - N/A   Clear
12:55 AM 74.5 °F - 68.0 °F 80% 29.87 in 10.0 mi East 5.8 mph - N/A   Clear
1:15 AM 73.4 °F - 67.6 °F 82% 29.87 in 10.0 mi Calm Calm - N/A   Clear
1:35 AM 72.5 °F - 67.5 °F 84% 29.87 in 10.0 mi Calm Calm - N/A   Clear
1:55 AM 72.0 °F - 68.9 °F 90% 29.87 in 10.0 mi Calm Calm - N/A   Clear
2:15 AM 71.1 °F - 68.9 °F 93% 29.87 in 10.0 mi ENE 4.6 mph - N/A   Clear
2:35 AM 70.7 °F - 68.9 °F 94% 29.87 in 10.0 mi ENE 5.8 mph - N/A   Clear
2:55 AM 70.9 °F - 69.3 °F 95% 29.87 in 10.0 mi ENE 5.8 mph - N/A   Clear
3:15 AM 70.7 °F - 69.1 °F 95% 29.87 in 10.0 mi ENE 3.5 mph - N/A   Clear
3:35 AM 70.2 °F - 68.9 °F 96% 29.87 in 7.0 mi East 3.5 mph - N/A   Clear
3:55 AM 69.8 °F - 68.9 °F 97% 29.87 in 7.0 mi East 3.5 mph - N/A   Scattered Clouds
4:15 AM 70.7 °F - 69.4 °F 96% 29.87 in 10.0 mi East 3.5 mph - N/A   Overcast
4:35 AM 71.2 °F - 69.8 °F 95% 29.87 in 7.0 mi ESE 4.6 mph - N/A   Overcast
4:55 AM 71.6 °F - 69.8 °F 94% 29.87 in 10.0 mi ESE 3.5 mph - N/A   Overcast
5:15 AM 71.8 °F - 69.8 °F 93% 29.88 in 7.0 mi SE 5.8 mph - N/A   Overcast
5:35 AM 71.6 °F - 70.0 °F 95% 29.89 in 7.0 mi SE 8.1 mph - N/A   Overcast
5:55 AM 71.8 °F - 70.2 °F 95% 29.89 in 7.0 mi SE 6.9 mph - N/A   Overcast
6:15 AM 71.8 °F - 70.3 °F 95% 29.90 in 7.0 mi SE 4.6 mph - N/A   Overcast
6:35 AM 72.0 °F - 70.3 °F 95% 29.90 in 7.0 mi SE 4.6 mph - N/A   Overcast
6:55 AM 72.0 °F - 70.3 °F 95% 29.91 in 7.0 mi ESE 6.9 mph - N/A   Overcast
7:15 AM 72.1 °F - 70.3 °F 94% 29.91 in 7.0 mi ESE 5.8 mph - N/A   Overcast
7:35 AM 72.0 °F - 70.2 °F 94% 29.92 in 7.0 mi East 6.9 mph - N/A   Overcast
7:55 AM 72.5 °F - 70.3 °F 93% 29.92 in 7.0 mi ESE 6.9 mph - N/A   Overcast
8:15 AM 72.5 °F - 70.2 °F 92% 29.93 in 7.0 mi East 4.6 mph - N/A   Overcast
8:35 AM 73.4 °F - 69.8 °F 88% 29.94 in 7.0 mi ESE 5.8 mph - N/A   Overcast
8:55 AM 74.1 °F - 69.3 °F 85% 29.94 in 7.0 mi ESE 5.8 mph - N/A   Overcast
9:15 AM 75.6 °F - 69.1 °F 80% 29.95 in 7.0 mi East 5.8 mph - N/A   Overcast
9:35 AM 77.4 °F - 68.5 °F 74% 29.96 in 10.0 mi East 5.8 mph - N/A   Overcast
9:55 AM 78.6 °F - 68.4 °F 71% 29.95 in 10.0 mi East 9.2 mph - N/A   Mostly Cloudy
10:15 AM 79.5 °F - 68.2 °F 68% 29.96 in 10.0 mi East 4.6 mph - N/A   Mostly Cloudy
10:35 AM 80.4 °F 83.0 °F 67.6 °F 65% 29.96 in 10.0 mi ESE 4.6 mph - N/A   Overcast
11:15 AM 82.4 °F 84.6 °F 66.4 °F 58% 29.96 in 10.0 mi East 4.6 mph - N/A   Overcast
11:35 AM 84.0 °F 86.3 °F 66.2 °F 55% 29.96 in 10.0 mi East 6.9 mph - N/A   Overcast
11:55 AM 83.7 °F 85.8 °F 65.8 °F 55% 29.96 in 10.0 mi ESE 8.1 mph - N/A   Overcast
12:15 PM 84.2 °F 86.1 °F 65.1 °F 53% 29.96 in 10.0 mi East 8.1 mph - N/A   Overcast
12:35 PM 87.4 °F 89.5 °F 65.3 °F 48% 29.95 in 10.0 mi ESE 8.1 mph - N/A   Mostly Cloudy
12:55 PM 87.1 °F 88.6 °F 64.6 °F 47% 29.94 in 10.0 mi ESE 8.1 mph - N/A   Mostly Cloudy
1:15 PM 87.8 °F 89.1 °F 64.0 °F 45% 29.94 in 10.0 mi ENE 9.2 mph - N/A   Mostly Cloudy
1:35 PM 87.4 °F 88.5 °F 63.5 °F 45% 29.93 in 10.0 mi NE 4.6 mph - N/A   Mostly Cloudy
1:55 PM 89.4 °F 90.8 °F 64.0 °F 43% 29.92 in 10.0 mi ENE 9.2 mph 16.1 mph N/A   Scattered Clouds
2:15 PM 89.4 °F 90.5 °F 63.3 °F 42% 29.91 in 10.0 mi ESE 4.6 mph - N/A   Scattered Clouds
2:35 PM 89.4 °F 89.8 °F 62.2 °F 40% 29.90 in 10.0 mi SE 9.2 mph - N/A   Clear
2:55 PM 90.7 °F 91.0 °F 61.9 °F 38% 29.88 in 10.0 mi ESE 8.1 mph 18.4 mph N/A   Clear
3:15 PM 92.3 °F 92.7 °F 61.7 °F 36% 29.87 in 10.0 mi SE 10.4 mph - N/A   Clear
3:35 PM 92.7 °F 92.5 °F 60.1 °F 34% 29.85 in 10.0 mi ESE 8.1 mph 18.4 mph N/A   Clear
3:55 PM 93.4 °F 93.2 °F 60.6 °F 33% 29.84 in 10.0 mi ESE 5.8 mph 21.9 mph N/A   Clear
4:35 PM 93.6 °F 93.1 °F 59.9 °F 32% 29.84 in 10.0 mi East 9.2 mph - N/A   Clear
4:55 PM 93.7 °F 93.0 °F 59.0 °F 31% 29.83 in 10.0 mi SE 11.5 mph 16.1 mph N/A   Scattered Clouds
5:15 PM 92.7 °F 91.8 °F 58.8 °F 32% 29.83 in 10.0 mi ESE 5.8 mph 16.1 mph N/A   Scattered Clouds
5:35 PM 93.0 °F 92.0 °F 58.1 °F 31% 29.84 in 10.0 mi ESE 12.7 mph 36.8 mph N/A   Clear
5:55 PM 92.3 °F 91.6 °F 59.2 °F 33% 29.84 in 10.0 mi SSE 8.1 mph 20.7 mph N/A   Scattered Clouds
6:15 PM 92.3 °F 91.3 °F 58.8 °F 32% 29.83 in 10.0 mi SE 10.4 mph - N/A   Clear
6:35 PM 92.5 °F 91.9 °F 59.7 °F 33% 29.83 in 10.0 mi SSE 15.0 mph 23.0 mph N/A   Scattered Clouds
6:55 PM 88.3 °F 88.9 °F 62.6 °F 42% 29.83 in 10.0 mi South 15.0 mph 25.3 mph N/A   Scattered Clouds
7:15 PM 86.9 °F 87.8 °F 63.0 °F 45% 29.83 in 10.0 mi South 12.7 mph 21.9 mph N/A   Clear
7:35 PM 86.5 °F 87.3 °F 63.0 °F 45% 29.83 in 10.0 mi SSE 9.2 mph - N/A   Scattered Clouds
7:55 PM 86.0 °F 86.8 °F 63.1 °F 46% 29.82 in 10.0 mi SE 10.4 mph - N/A   Clear
8:15 PM 85.1 °F 87.4 °F 66.2 °F 53% 29.83 in 10.0 mi East 15.0 mph 19.6 mph N/A   Clear
8:35 PM 84.2 °F 86.6 °F 66.2 °F 55% 29.83 in 10.0 mi ESE 12.7 mph 19.6 mph N/A   Clear
8:55 PM 83.5 °F 86.0 °F 66.6 °F 57% 29.85 in 10.0 mi East 9.2 mph - N/A   Clear
9:15 PM 82.0 °F 84.5 °F 67.1 °F 60% 29.85 in 10.0 mi East 12.7 mph - N/A   Clear
9:35 PM 81.5 °F 83.9 °F 67.1 °F 61% 29.86 in 10.0 mi ESE 8.1 mph - N/A   Clear
9:55 PM 80.1 °F 82.3 °F 67.1 °F 64% 29.86 in 10.0 mi East 11.5 mph 18.4 mph N/A   Clear
10:15 PM 79.0 °F - 67.1 °F 67% 29.86 in 10.0 mi ESE 10.4 mph 16.1 mph N/A   Clear
10:35 PM 78.1 °F - 67.1 °F 69% 29.86 in 10.0 mi East 11.5 mph 16.1 mph N/A   Clear
10:55 PM 77.5 °F - 67.1 °F 70% 29.87 in 7.0 mi ESE 10.4 mph 16.1 mph N/A   Clear
11:15 PM 77.0 °F - 67.1 °F 71% 29.87 in 7.0 mi ESE 13.8 mph 19.6 mph N/A   Clear
11:35 PM 76.3 °F - 66.9 °F 73% 29.88 in 10.0 mi SE 9.2 mph 21.9 mph N/A   Clear
11:55 PM 75.7 °F - 67.1 °F 74% 29.89 in 10.0 mi SE 10.4 mph 18.4 mph N/A   Clear